Location: Coed Ely
(51.5661°N, 3.4150°W)
Time: 11:38:14
(UTC+00:00)

Daily predictions for brighter satellites

Satellite Brightness Start Highest point End
(mag) Time Altitude Azimuth Time Altitude Azimuth Time Altitude Azimuth
USA 267 3.8 17:20:33 10° ENE 17:26:52 48° SE 17:33:08 10° SSW
Meteor 1-21 Rocket 4.4 17:22:11 10° S 17:27:40 54° E 17:33:18 10° NNE
USA 32 4.2 17:24:32 10° SSE 17:29:36 54° E 17:34:42 10° NNE
ISS -3.2 17:26:37 10° SW 17:29:56 52° SSE 17:33:14 10° E
PSLV R/B 4.0 17:26:30 10° NNE 17:30:34 60° ESE 17:34:38 10° S
Cosmos 1242 Rocket 4.0 17:28:17 10° SW 17:31:40 39° WNW 17:35:06 10° N
Cosmos 44 3.4 17:27:32 10° SSW 17:31:54 49° SE 17:36:09 10° NE
Cosmos 1300 4.5 17:29:43 10° NNW 17:33:15 36° W 17:36:46 10° SSW
Cosmos 1602 Rocket 3.9 17:28:55 10° SSW 17:33:16 70° WNW 17:37:37 10° N
CZ-4 R/B 2.3 17:31:27 10° SE 17:35:02 29° ENE 17:38:40 10° N
ATLAS CENTAUR R/B 1.2 17:35:19 10° NW 17:39:28 89° SSW 17:43:16 10° SE
ATLAS 5 CENTAUR R/B 3.4 17:35:41 10° WNW 17:39:34 25° NNW 17:43:54 10° NE
Cosmos 407 Rocket 4.5 17:36:57 10° N 17:41:26 27° NE 17:45:53 10° ESE
Starlink D 3.0 17:40:10 10° WNW 17:43:27 71° N 17:46:44 10° E
Cosmos 2082 Rocket 4.4 17:43:59 10° N 17:44:40 10° N 17:45:20 10° N
Cosmos 1455 2.1 17:41:25 10° N 17:45:14 67° ENE 17:48:59 10° SSE
Starlink S 3.0 17:42:29 10° WNW 17:45:46 72° N 17:49:02 10° E
CSL-04 Rocket 4.3 17:41:07 10° SE 17:46:08 37° ENE 17:51:11 10° N
Cosmos 1703 3.9 17:43:02 10° SSE 17:46:40 36° E 17:50:20 10° NNE
Cosmos 2237 Rocket 4.1 17:42:29 10° NW 17:47:33 35° WSW 17:52:34 10° S
Cosmos 1953 Rocket 3.8 17:43:19 10° SSE 17:47:39 49° E 17:51:59 10° NNE
Cosmos 2341 Rocket 4.0 17:41:29 10° S 17:47:49 75° E 17:54:09 10° NNE
Starlink AR 2.4 17:45:10 10° WNW 17:47:52 75° N 17:50:26 11° E
Starlink C 3.0 17:44:45 10° WNW 17:48:02 73° N 17:51:13 11° E
Cosmos 1842 Rocket 4.3 17:44:47 10° N 17:48:49 32° ENE 17:52:50 10° SE
COSMO-SKYMED 1 3.4 17:45:26 10° NNE 17:49:21 31° E 17:53:12 10° SSE
Starlink E 3.0 17:47:05 10° WNW 17:50:23 74° N 17:53:28 11° E
Cosmos 1758 Rocket 3.5 17:47:08 10° S 17:51:27 84° E 17:55:49 10° NNE
Starlink J 3.0 17:49:25 10° WNW 17:52:43 75° N 17:55:42 12° E
CORIOLIS 4.5 17:48:04 10° S 17:53:25 73° WSW 17:58:48 10° NNW
Cosmos 1339 Rocket 4.4 17:47:52 10° N 17:54:00 73° ENE 18:00:09 10° SSE
Starlink V 3.0 17:51:44 10° WNW 17:55:02 76° NNE 17:57:56 13° E
Iridium 96 3.5 17:54:16 10° N 17:56:43 85° E 17:59:17 10° S
Shenzhou-11 Module 4.5 17:55:34 10° SW 17:56:58 13° S 17:58:22 10° SSE
SMAP 3.9 17:52:38 10° S 17:57:11 55° W 18:01:47 10° NNW
Starlink H 3.0 17:54:04 10° WNW 17:57:22 77° N 18:00:11 13° E
Meteor 2-10 Rocket 3.5 17:52:26 10° NNW 17:57:45 89° ENE 18:02:50 10° SSE
Starlink F 3.0 17:56:25 10° WNW 17:59:43 78° N 18:02:27 14° E
ERBS 2.9 17:58:49 10° W 18:02:03 46° NNW 18:04:33 15° NE
Starlink G 2.9 17:58:45 10° WNW 18:02:04 79° NNE 18:04:42 15° E
Cosmos 1356 Rocket 3.4 17:58:03 10° N 18:02:04 54° ENE 18:06:06 10° SSE
USA 234 3.6 17:57:07 10° SE 18:03:39 71° SW 18:10:11 10° WNW
Starlink L 2.9 18:01:05 10° WNW 18:04:24 80° NNE 18:06:57 16° E
ADEOS Rocket 4.2 18:00:39 10° NE 18:06:14 26° E 18:12:10 10° SE
Starlink A 2.9 18:03:26 10° WNW 18:06:45 81° NNE 18:09:13 17° E
Cosmos 2218 Rocket 4.0 18:02:02 10° S 18:08:21 68° E 18:14:44 10° NNE
Starlink R 2.9 18:05:48 10° WNW 18:09:07 83° NNE 18:11:29 18° E
Ariane Rocket 3.9 18:05:06 10° ESE 18:09:18 27° ENE 18:13:31 10° N
Starlink K 2.9 18:08:08 10° WNW 18:11:27 84° NNE 18:13:45 19° ESE
CZ-2D R/B 3.7 18:09:10 10° SE 18:12:44 37° ENE 18:16:20 10° N
Cosmos 1825 Rocket 3.9 18:08:54 10° SSW 18:13:13 68° WNW 18:17:32 10° N
Starlink M 2.9 18:10:28 10° WNW 18:13:47 85° NNE 18:15:59 20° ESE
Cosmos 1869 4.3 18:11:03 10° NNE 18:14:23 25° ENE 18:17:40 10° SE
Cosmos 1959 Rocket 4.4 18:08:26 10° S 18:14:31 72° E 18:20:37 10° NNE
Cosmos 614 Rocket 4.3 18:09:37 10° NNW 18:14:38 45° ENE 18:19:39 10° SE
SL-16 R/B 3.1 18:09:07 10° NW 18:14:38 53° WSW 18:20:07 10° S
Cosmos 2221 2.9 18:11:10 10° N 18:15:14 40° ENE 18:19:19 10° SE
SL-8 R/B 4.1 18:12:21 10° WSW 18:17:05 57° S 18:20:30 18° E
YAOGAN 6 3.0 18:16:51 10° S 18:20:29 66° WSW 18:24:06 10° NNW
Cosmos-2242 4.3 18:17:32 10° NNW 18:21:38 43° W 18:25:41 10° SSW
Cosmos 44 Rocket 4.0 18:18:47 10° S 18:23:02 32° ESE 18:25:12 22° ENE
CZ-4 R/B 4.4 18:20:55 10° SSE 18:25:02 88° W 18:29:11 10° NNW
Cosmos 2082 3.7 18:19:44 10° SSW 18:25:22 88° WNW 18:31:04 10° NNE
BREEZE-M DEB (TANK) 3.3 18:23:31 10° SW 18:25:33 30° SSE 18:26:22 24° ESE
Cosmos 1939 Rocket 3.0 18:22:02 10° SSE 18:25:53 51° ENE 18:29:49 10° N
Cosmos 2219 4.3 18:22:06 10° WSW 18:27:27 43° NW 18:32:51 10° NNE
Cosmos 1603 3.6 18:22:18 10° NNW 18:28:00 70° ENE 18:33:38 10° SE
ARGOS 4.2 18:27:20 21° ENE 18:28:44 23° ENE 18:32:55 10° N
Cosmos 2297 Rocket 2.9 18:23:57 10° SW 18:29:29 53° NW 18:35:03 10° NNE
CZ-2C R/B 4.3 18:32:11 22° ENE 18:33:31 24° NE 18:38:02 10° N
Cosmos 2366 rocket 4.0 18:27:28 10° S 18:33:44 88° W 18:40:07 10° N
Cosmos 2263 Rocket 3.0 18:29:26 10° SSE 18:34:06 28° ESE 18:35:47 24° ENE
SKYMED 2 3.5 18:33:12 10° NNE 18:37:35 87° ESE 18:41:56 10° SSW
Cosmos 2227 Rocket 3.1 18:37:41 10° SW 18:43:09 48° NW 18:48:38 10° NNE
Okean-O 4.2 18:39:15 10° SSW 18:43:24 39° W 18:47:35 10° NNW
Cosmos 1140 Rocket 3.6 18:38:35 10° NNW 18:43:44 51° ENE 18:47:37 17° SE
NOAA 11 4.2 18:38:39 10° SSE 18:44:09 89° ENE 18:49:41 10° NNW
Meteor 1-27 4.2 18:39:15 10° NNW 18:44:50 86° W 18:50:26 10° S
ATLAS 5 CENTAUR R/B 3.3 18:41:29 10° NW 18:45:35 68° NE 19:00:54 10° ESE
Cosmos 2058 4.4 18:42:19 10° SSE 18:43:58 20° SE 18:43:58 20° SE
Meteor 1-11 4.1 18:42:28 10° S 18:48:04 87° ESE 18:53:41 10° NNE
SWAS 4.5 18:44:12 10° SW 18:48:32 82° NW 18:51:18 22° NNE
Starlink T 3.2 18:48:56 10° WNW 18:52:10 64° SSW 18:52:51 48° SE
NOSS 3-3 (A) 4.4 18:45:09 10° NW 18:52:26 77° NE 18:59:19 16° SE
NOSS 3-3 (C) 4.4 18:45:14 10° NW 18:52:32 77° NE 18:59:20 16° SE
YAOGAN 1 2.9 18:49:32 10° S 18:53:51 66° WSW 18:58:10 10° NNW
Starlink AS 3.0 18:51:20 10° WNW 18:54:14 57° SSW 18:54:31 53° S
Starlink N 3.2 18:51:04 10° WNW 18:54:18 63° SSW 18:54:54 49° SSE
Starlink BA 3.0 18:51:33 10° WNW 18:54:27 57° SSW 18:54:43 53° S
Starlink AU 3.0 18:51:47 10° WNW 18:54:41 57° SSW 18:54:57 53° S
Starlink AT 3.1 18:52:02 10° WNW 18:54:55 56° SSW 18:55:11 53° S
Starlink BB 3.1 18:52:14 10° WNW 18:55:07 56° SSW 18:55:22 53° S
Starlink BC 3.1 18:52:28 10° WNW 18:55:22 56° SSW 18:55:36 53° S
Starlink BK 3.1 18:52:41 10° WNW 18:55:34 56° SSW 18:55:49 53° S
Starlink AY 3.1 18:52:54 10° WNW 18:55:47 56° SSW 18:56:01 53° S
Starlink AW 3.1 18:53:09 10° WNW 18:56:02 56° SSW 18:56:15 53° S
Starlink BJ 3.1 18:53:20 10° WNW 18:56:14 55° SSW 18:56:26 53° S
Cosmos 1943 3.1 18:50:46 10° NNW 18:56:27 85° ENE 19:02:08 10° SSE
Starlink AV 3.1 18:53:35 10° WNW 18:56:29 55° SSW 18:56:41 53° S
Starlink Q 3.3 18:53:26 10° WNW 18:56:39 61° SSW 18:57:10 51° SSE
Starlink BD 3.1 18:53:49 10° WNW 18:56:43 55° SSW 18:56:54 53° S
Starlink BE 3.1 18:54:00 10° WNW 18:56:55 55° SSW 18:57:07 53° S
Starlink BM 3.1 18:54:16 10° WNW 18:57:09 55° SSW 18:57:19 53° S
Starlink AX 3.1 18:54:30 10° WNW 18:57:23 54° SSW 18:57:33 53° S
Starlink BH 3.1 18:54:42 10° WNW 18:57:36 54° SSW 18:57:45 53° S
Starlink AZ 3.1 18:54:56 10° WNW 18:57:49 54° SSW 18:57:58 53° S
Starlink BG 3.1 18:55:10 10° WNW 18:58:03 54° SSW 18:58:11 53° S
Starlink BF 3.1 18:55:23 10° WNW 18:58:16 54° SSW 18:58:24 53° S
Starlink BL 3.2 18:55:34 10° WNW 18:58:28 54° SSW 18:58:38 53° S
Starlink AH 3.2 18:55:51 10° WNW 18:58:44 53° SSW 18:58:51 53° SSW
Starlink P 3.3 18:55:38 10° WNW 18:58:51 59° SSW 18:59:18 52° SSE
Starlink AC 3.2 18:56:04 10° WNW 18:58:57 53° SSW 18:59:04 53° SSW
Starlink X 3.2 18:56:18 10° WNW 18:59:10 53° SSW 18:59:16 53° SSW
Starlink AE 3.2 18:56:28 10° WNW 18:59:23 53° SSW 18:59:31 53° SSW
Starlink Z 3.2 18:56:45 10° WNW 18:59:38 53° SSW 18:59:43 52° SSW
Starlink AK 3.2 18:56:58 10° WNW 18:59:50 53° SSW 18:59:55 52° SSW
Starlink AQ 3.2 18:57:03 10° WNW 18:59:56 53° SSW 19:00:02 52° SSW
Starlink AL 3.2 18:57:11 10° WNW 19:00:04 52° SSW 19:00:08 52° SSW
Starlink AD 3.2 18:57:25 10° WNW 19:00:18 52° SSW 19:00:21 52° SSW
Starlink Y 3.2 18:57:53 10° WNW 19:00:45 52° SSW 19:00:48 52° SSW
Starlink AG 3.2 18:58:06 10° WNW 19:00:58 52° SSW 19:01:00 52° SSW
Starlink U 3.3 18:57:51 10° WNW 19:01:03 58° SSW 19:01:26 53° S
Starlink W 3.2 18:58:16 10° WNW 19:01:11 52° SSW 19:01:15 52° SSW
Starlink AJ 3.3 18:58:32 10° WNW 19:01:25 51° SSW 19:01:26 51° SSW
Starlink AM 3.3 18:58:59 10° WNW 19:01:51 51° SSW 19:01:52 51° SSW
Starlink AP 3.3 18:59:13 10° WNW 19:02:05 51° SSW 19:02:05 51° SSW
Starlink AA 3.3 18:59:27 10° WNW 19:02:18 51° SSW 19:02:18 51° SSW
Starlink AF 3.3 18:59:40 10° WNW 19:02:32 51° SSW 19:02:32 51° SSW
Starlink AB 3.3 18:59:54 10° WNW 19:02:44 50° SSW 19:02:44 50° SSW
Starlink AN 3.3 19:00:07 10° WNW 19:02:56 50° SSW 19:02:56 50° SSW
Starlink B 3.3 19:00:05 10° WNW 19:03:17 56° SSW 19:03:34 53° S
Cosmos 1238 4.2 19:00:16 10° N 19:03:20 86° W 19:06:51 10° S
H-2A R/B 2.3 19:04:42 41° E 19:05:20 43° ENE 19:10:14 10° N
ISS -3.8 19:03:16 10° W 19:06:37 85° NW 19:06:37 85° NW
CZ-4 R/B 3.1 19:06:10 10° SSW 19:09:58 36° W 19:13:51 10° NNW
USA 267 3.3 19:06:35 29° ENE 19:10:11 79° NNW 19:16:43 10° WSW
HJ-1C 4.2 19:11:21 40° N 19:11:21 40° N 19:13:37 10° NNW
Cosmos 1954 Rocket 4.0 19:06:10 10° NNW 19:11:29 60° ENE 19:13:02 42° ESE
Cosmos 44 4.4 19:09:08 10° WSW 19:13:14 35° NW 19:15:16 23° NNE
Cosmos 2084 3.3 19:10:53 10° NW 19:15:19 68° NE 19:15:33 66° ENE
ATLAS CENTAUR R/B 4.4 19:15:54 10° W 19:17:38 13° WSW 19:19:20 10° SW
Starlink D 4.0 19:16:36 10° WNW 19:19:30 44° SW 19:19:30 44° SW
SJ-11-01 4.1 19:19:15 28° SSE 19:21:43 78° ENE 19:26:28 10° NNW
Starlink S 4.1 19:18:56 10° WNW 19:21:44 42° SW 19:21:44 42° SW
Timation 1 Rocket 4.3 19:17:08 10° SSW 19:22:58 59° ESE 19:24:16 48° ENE
CENTAUR R/B 4.0 19:18:43 10° SSE 19:20:42 19° SSE 19:20:42 19° SSE
Cosmos 407 Rocket 3.9 19:18:40 10° NNW 19:23:54 63° WSW 19:29:02 10° S
Starlink C 4.2 19:21:13 10° W 19:23:55 40° SW 19:23:55 40° SW
COSMO-SKYMED 1 4.1 19:21:34 10° N 19:25:32 35° WNW 19:29:28 10° SW
ATLAS 5 CENTAUR R/B 3.4 19:21:37 10° NW 19:25:47 25° NNE 19:26:16 24° NNE
Cosmos 1190 Rocket 4.2 19:20:32 10° NNW 19:25:50 70° WSW 19:30:51 11° SSE
Starlink E 4.3 19:23:34 10° W 19:26:10 38° SW 19:26:10 38° SW
Cosmos 1371 Rocket 3.8 19:22:54 10° SSW 19:28:02 67° ESE 19:28:28 64° E
Starlink J 4.5 19:25:54 10° W 19:28:25 36° WSW 19:28:25 36° WSW
Cosmos 2082 Rocket 4.1 19:28:20 10° N 19:30:52 15° NNE 19:30:52 15° NNE
NOSS 3-2 (A) 3.5 19:27:01 10° SSW 19:32:36 51° ESE 19:32:40 51° ESE
SPOT 3 Rocket 4.1 19:36:56 43° NNE 19:36:56 43° NNE 19:40:41 10° N
Cosmos 676 Rocket 4.0 19:33:09 10° NNW 19:38:33 86° WSW 19:39:53 52° SSE
ERBS 4.5 19:35:53 10° WNW 19:37:32 22° NW 19:37:32 22° NW
Cosmos 1821 Rocket 4.2 19:34:03 10° SSW 19:40:23 72° WNW 19:46:41 10° N
Ariane Rocket 3.6 19:42:58 10° S 19:47:57 57° WSW 19:53:00 10° NNW
MOS 1 4.3 19:45:37 22° S 19:49:25 77° WSW 19:55:09 10° NNW
ADEOS Rocket 3.4 19:45:33 10° NNE 19:52:19 80° WNW 19:59:45 10° SSW
In-Cosmos 22 Rocket 4.1 19:48:27 10° SSW 19:54:06 86° WNW 19:55:13 59° N
Cosmos 1624 Rocket 4.0 19:49:28 10° SSW 19:54:15 73° SW 19:54:15 73° SW
SL-8 R/B 4.5 19:54:38 10° W 19:58:29 47° SW 19:58:29 47° SW
Cosmos 44 Rocket 4.0 19:59:43 10° WSW 20:03:57 50° WNW 20:03:57 50° WNW
Cosmos 2123 Rocket 4.5 19:58:16 10° NNW 20:04:27 59° W 20:10:35 10° S
ARGOS 3.3 20:08:50 70° WNW 20:08:50 70° WNW 20:13:56 10° NNW
Cosmos 1934 Rocket 4.1 20:03:52 10° SSW 20:09:54 68° WNW 20:15:58 10° N
Cosmos 2056 Rocket 4.0 20:05:43 10° SSW 20:10:09 59° WSW 20:10:09 59° WSW
CZ-2C R/B 3.4 20:13:14 71° WNW 20:13:14 71° WNW 20:18:36 10° NNW
USA 238 DEB 3.5 20:07:07 10° SW 20:13:52 89° SE 20:13:54 89° E
USA 238 3.5 20:07:15 10° SW 20:13:58 88° SE 20:13:58 88° SE
Cosmos 2297 Rocket 4.5 20:11:11 10° WNW 20:14:53 17° NNW 20:17:42 13° N
Cosmos 2263 Rocket 2.6 20:12:10 10° SW 20:17:33 60° WNW 20:17:33 60° WNW
H-2A R/B 3.6 20:45:18 32° W 20:45:18 32° W 20:49:33 10° NNW
USA 267 3.8 20:53:55 51° NW 20:53:55 51° NW 20:59:17 10° WNW
ATLAS 5 CENTAUR R/B 4.3 21:06:18 10° NW 21:07:49 19° NW 21:07:49 19° NW
